Printer-friendly version

IAU Minor Planet Center

Minor Planet Center

MPEC 2007-F36 : 2007 FF1

The following Minor Planet Electronic Circular may be linked-to from your own Web pages, but must not otherwise be redistributed electronically.


Read MPEC 2007-F35 Read MPEC 2007-F37


M.P.E.C. 2007-F36                                Issued 2007 Mar. 19, 11:41 UT

     The Minor Planet Electronic Circulars contain information on unusual
         minor planets and routine data on comets.  They are published
   on behalf of Commission 20 of the International Astronomical Union by the
          Minor Planet Center, Smithsonian Astrophysical Observatory,
                          Cambridge, MA 02138, U.S.A.

             Prepared using the Tamkin Foundation Computer Network

                              MPC@CFA.HARVARD.EDU
          URL http://cfa-www.harvard.edu/iau/mpc.html  ISSN 1523-6714

                                   2007 FF1

Observations:
     K07F01F* C2007 03 17.17490 09 30 46.62 +41 31 26.6          21.2 V EF036703
     K07F01F  C2007 03 17.18385 09 30 42.84 +41 31 35.0          20.8 V EF036703
     K07F01F  C2007 03 17.19266 09 30 39.34 +41 31 44.4          20.3 V EF036703
     K07F01F  C2007 03 17.20149 09 30 35.82 +41 31 51.8          20.9 V EF036703
     K07F01F  C2007 03 17.27245 09 30 06.91 +41 32 57.5          19.9 V EF036703
     K07F01F  C2007 03 17.27990 09 30 03.85 +41 33 02.9          19.9 V EF036703
     K07F01F  C2007 03 17.28729 09 30 00.86 +41 33 09.1          20.2 V EF036703
     K07F01F  C2007 03 17.29469 09 29 57.80 +41 33 16.2          21.2 V EF036703
     K07F01F  C2007 03 17.96391 09 25 34.77 +41 43 03.2          19.7 R EF036204
     K07F01F  C2007 03 18.00401 09 25 18.27 +41 43 34.4                 EF036204
     K07F01F  C2007 03 18.11339109 24 37.02 +41 45 17.2          20.4   EF036H55
     K07F01F  C2007 03 18.11622409 24 35.84 +41 45 20.5          20.7   EF036H55
     K07F01F  C2007 03 18.11948009 24 34.48 +41 45 22.9          20.6   EF036H55
     K07F01F 5C2007 03 19.16921 09 17 24.90 +41 59 14.7          20.2 R EF036673
     K07F01F 5C2007 03 19.17465 09 17 23.17 +41 59 17.5                 EF036673
     K07F01F 5C2007 03 19.18148 09 17 19.61 +41 59 23.9                 EF036673
     K07F01F 5C2007 03 19.18519 09 17 17.51 +41 59 27.9                 EF036673

Observer details:
204 Schiaparelli Observatory.  Observers L. Buzzi, F. Luppi.  Measurer
    L. Buzzi.  0.60-m f/4.64 reflector + CCD.
673 Table Mountain Observatory, Wrightwood.  Observer J. Young.  0.61-m f/16
    Cassegrain + CCD.
703 Catalina Sky Survey.  Observer R. A. Kowalski.  Measurers E. C. Beshore,
    E. J. Christensen, G. J. Garradd, A. R. Gibbs, A. D. Grauer, R. E. Hill,
    R. A. Kowalski, S. M. Larson, R. H. McNaught.  0.68-m Schmidt + CCD.
H55 Astronomical Research Observatory, Charleston.  Observer R. Holmes.
    0.81-m f/4.0 astrograph + CCD.

Orbital elements:
2007 FF1                                            PHA, Earth MOID = 0.0348 AU
Epoch 2007 Apr. 10.0 TT = JDT 2454200.5                 MPC
M 338.32776              (2000.0)            P               Q
n   0.51496816     Peri.  234.05861     -0.25286065     +0.96605204
a   1.5415199      Node    21.47907     -0.83455906     -0.19009479
e   0.4889915      Incl.    8.31648     -0.48946161     -0.17494980
P   1.91           H   21.9           G   0.15           U   9
Residuals in seconds of arc
070317 703  0.4+  0.1+    070317 703  0.0   0.7-    070318 H55  0.2-  0.3+
070317 703  1.3-  0.2-    070317 703  0.6-  0.1+    070319 673  0.7-  0.1+
070317 703  0.4-  0.7+    070317 204  0.3-  0.1+    070319 673 (6.6+  1.4-)
070317 703  0.4+  0.3-    070318 204  0.3+  0.0     070319 673  0.3+  0.3-
070317 703  0.2+  0.6+    070318 H55  0.4-  0.1-    070319 673 (5.0-  0.8+)
070317 703  0.2-  0.5-    070318 H55  0.2-  0.7+

Ephemeris:
2007 FF1                 a,e,i = 1.54, 0.49, 8                   q = 0.7877
Date    TT    R. A. (2000) Decl.     Delta      r     Elong.  Phase     V
2007 03 11    10 05.63   +39 31.8    0.237    1.186   140.4    32.3    20.5
2007 03 16    09 38.14   +41 12.0    0.211    1.147   132.0    40.1    20.4
2007 03 21    09 04.18   +42 18.3    0.188    1.108   122.3    49.5    20.3
2007 03 26    08 23.29   +42 29.9    0.168    1.070   111.1    60.4    20.3
2007 03 31    07 35.50   +41 20.7    0.151    1.032    98.5    73.2    20.4
2007 04 05    06 41.84   +38 19.6    0.138    0.995    84.0    88.1    20.7
2007 04 10    05 45.13   +33 01.2    0.129    0.960    67.5   105.3    21.3

Timothy B. Spahr             (C) Copyright 2007 MPC           M.P.E.C. 2007-F36

Read MPEC 2007-F35 Read MPEC 2007-F37


Our Web policy. Index to the CBAT/MPC/ICQ pages.


Valid HTML 4.01!